Miscellaneous Local Product
Issued by NWS North Platte, NE

Home | Current Version | Previous Version | Text Only | Print | Product List | Glossary On
Versions: 1 2 3 4 5 6 7 8 9 10 11 12 13 14 15 16 17 18 19 20 21 22 23 24 25 26 27 28 29 30 31 32 33 34 35 36 37 38 39 40 41 42 43 44 45 46 47 48 49 50
487
AXUS43 KLBF 231310
MISLBF


WESTERN AND NORTH CENTRAL NEBRASKA HOURLY WEATHER ROUNDUP
NATIONAL WEATHER SERVICE NORTH PLATTE NE
800 AM CDT SUN JUL 23 2017

NOTE: "FAIR" INDICATES FEW OR NO CLOUDS BELOW 12,000 FEET WITH NO
SIGNIFICANT WEATHER AND/OR OBSTRUCTIONS TO VISIBILITY.

NOTE: STATIONS NOT REPORTING VARIABLES SUCH AS SKY/WEATHER OR
PRESSURE ARE PROVIDED BY RAWS AND APRS NETWORKS AND ARE NOT UNDER
NATIONAL WEATHER SERVICE QUALITY CONTROL.

...OBSERVATIONS IN AND NEAR THE EASTERN PANHANDLE OF NEBRASKA...

CITY           SKY/WX    TMP DP  RH WIND       PRES   REMARKS
PINE RIDGE     SUNNY     62  54  74 CALM      30.11R
GORDON         FAIR      60  56  84 CALM      30.12S
CHADRON        SUNNY     60  52  74 SW6       30.11R
ALLIANCE       SUNNY     61  52  72 CALM      30.13R
SIDNEY         SUNNY     64  52  64 W3        30.16R
CRESCENT LAKE    N/A     65  53  65 CALM        N/A
$$

...OBSERVATIONS IN NORTHERN NEBRASKA AND FAR SOUTHERN SOUTH DAKOTA...

CITY           SKY/WX    TMP DP  RH WIND       PRES   REMARKS
WINNER         FAIR      64  52  64 W3        30.06R
VALENTINE      SUNNY     65  47  52 CALM      30.08F
THEDFORD       SUNNY     67  54  62 CALM      30.10R
AINSWORTH      SUNNY     64  56  75 CALM      30.08S
O`NEILL        SUNNY     67  63  85 N5        30.03R
ORD            SUNNY     66  61  84 NW6       30.01R
BROKEN BOW     SUNNY     67  57  70 CALM      30.05R
VALENTINE NWR    N/A     64  52  65 N3          N/A
HALSEY           N/A     64  51  63 NW5         N/A
BUTTE            N/A     67  58  73 NE8         N/A
CHAMBERS         N/A     73  67  81 CALM        N/A
EWING            N/A     67  64  90 CALM        N/A
$$

...OBSERVATIONS IN SOUTHWEST NEBRASKA AND FAR NORTHEAST COLORADO...

CITY           SKY/WX    TMP DP  RH WIND       PRES   REMARKS
HOLYOKE        FAIR      63  55  77 W5        30.13R
IMPERIAL       SUNNY     65  55  70 W7        30.09S
OGALLALA       SUNNY     60  54  80 W3        30.10R
NORTH PLATTE   SUNNY     62  56  80 W5        30.08R
MCCOOK         SUNNY     62  58  86 SW5       30.07R FOG
LEXINGTON      SUNNY     64  61  91 N5        30.06R FOG
STAPLETON        N/A     63  52  67 CALM        N/A
GOTHENBURG       N/A     60  52  75 CALM        N/A
CALLAWAY         N/A     60  58  93 NW3         N/A
$$

...OBSERVATIONS IN CENTRAL LINCOLN COUNTY AREA...

CITY           SKY/WX    TMP DP  RH WIND       PRES   REMARKS
N.P. AIRPORT   SUNNY     62  56  80 W5        30.08R
N.P. DOWNTOWN    N/A     63  55  75 CALM        N/A
N.P. SOUTHEAST   N/A     61  53  74 CALM        N/A
N.P. HILLCREST   N/A     66  53  63 NW3         N/A
$$

...SOME OBSERVATIONS FROM AROUND THE REGION...

CITY           SKY/WX    TMP DP  RH WIND       PRES   REMARKS
DENVER         MOSUNNY   66  52  60 W6        30.22R
LIMON          SUNNY     58  56  93 N3        30.24R
ASPEN          CLOUDY    52  42  69 S5        30.39R
LARAMIE        CLOUDY    50  45  83 S6        30.34S
CASPER         SUNNY     57  37  47 CALM      30.21S
CHEYENNE       SUNNY     60  49  66 W8        30.26R
SCOTTSBLUFF    SUNNY     65  53  65 CALM      30.13R
GRAND ISLAND   SUNNY     69  67  93 SW6       30.02R
OMAHA          FOG       70  69  97 CALM      29.95R VSB 1/2
SIOUX FALLS    MOSUNNY   69  61  75 CALM      29.99R
PIERRE         SUNNY     66  54  65 N3        30.05R
RAPID CITY     SUNNY     66  49  54 CALM      30.12R
BISMARCK       SUNNY     62  55  77 W6        30.08R
KANSAS CITY    CLOUDY    74  71  91 W6        29.93R
HILL CITY      CLOUDY    70  70 100 SW3       30.05R FOG
WICHITA        PTSUNNY   74  71  91 SE7       29.95R
DODGE CITY     CLOUDY    71  66  84 NE8       30.03R
OKLAHOMA CITY  PTSUNNY   80  70  71 SE9       29.90R
DALLAS         MOSUNNY   82  74  76 S9        29.89R
AMARILLO       CLOUDY    70  63  78 NW12      30.06R
$$




USA.gov is the U.S. government's official web portal to all federal, state and local government web resources and services.